Temp
4 4 4 5 6 6 6 6 6 7 6 7 7 7 7 8 8 8 8 9 9 10 10 11 11 11 11 12 12 12 12 12 12 12 12 13 13 13 13 12 12 12 12 12 12 12 11
4 4 4 4 4 5 5 6 6 7 7 7 7 7 7 8 8 7 8 8 9 10 10 10 10 11 11 11 11 11 12 12 12 12 12 12 12 12 12 12 12 12 12 12 12 12 11
5 4 4 4 4 4 5 5 5 6 6 6 7 7 7 7 8 8 8 8 8 9 9 10 10 11 11 11 11 12 12 11 12 12 12 12 12 12 12 12 12 12 12 12 12 12 11
4 4 4 4 4 4 5 5 5 5 6 6 6 6 7 7 7 7 7 7 7 8 8 9 10 10 11 10 11 11 12 11 12 12 11 11 12 12 12 12 11 11 11 11 11 11 10
4 4 4 4 4 4 5 5 5 5 5 5 6 6 6 6 7 7 7 7 7 8 9 9 9 10 10 11 11 11 11 11 11 11 11 11 11 11 11 11 11 11 11 11 10 10 10
3 4 4 4 4 4 4 4 5 5 5 5 6 6 6 6 6 7 7 7 7 8 9 9 9 10 10 9 10 10 11 10 10 10 10 10 10 11 11 10 10 9 9 10 10 9 9
2 3 3 4 4 4 4 4 5 5 5 6 6 6 6 6 6 6 7 7 7 8 9 9 9 10 10 9 9 9 10 10 10 9 9 9 9 10 10 9 9 9 9 8 10 9 8
2 2 2 3 3 3 4 4 4 5 5 5 6 6 6 6 6 6 7 7 7 7 9 9 9 9 10 10 10 10 10 10 10 9 9 8 8 8 9 9 9 8 8 9 9 9 8
1 1 1 2 2 3 3 3 4 4 5 5 5 5 6 6 6 6 6 7 7 7 8 10 10 10 10 11 11 11 10 10 10 9 9 7 8 8 8 8 9 8 8 9 8 8 8
0 1 1 1 1 2 3 3 3 4 4 5 5 5 5 6 5 5 5 6 6 7 7 9 10 10 10 10 10 10 10 10 10 9 8 7 8 8 8 8 8 8 8 8 7 7 7
-1 -1 -0 0 0 1 2 3 3 3 3 4 4 5 5 5 5 5 5 5 6 6 5 8 8 8 9 9 8 9 9 9 9 8 8 8 7 7 8 8 7 7 7 7 7 7 6
-2 -1 -1 -1 -1 -0 0 1 2 3 3 4 4 4 5 5 5 4 4 4 4 5 4 7 8 8 8 8 8 8 9 9 8 8 8 8 7 7 8 7 7 6 6 6 6 7 7
-3 -2 -2 -2 -1 -1 -1 -0 0 1 3 3 3 4 4 4 4 4 4 2 2 4 6 6 7 8 8 8 8 8 8 8 7 7 7 7 8 8 8 7 7 6 6 5 6 6 8
-3 -4 -3 -3 -3 -3 -2 -2 -1 -0 1 2 2 2 3 3 3 3 3 1 2 6 6 6 6 7 7 7 7 7 8 8 7 7 6 6 7 7 8 8 7 7 6 6 6 7 8
-5 -4 -5 -5 -5 -5 -5 -4 -4 -3 -1 0 1 1 1 2 2 2 1 -0 4 5 5 5 5 5 6 6 6 6 6 7 7 7 6 7 6 7 7 7 7 7 7 6 6 5 5
-6 -6 -7 -8 -7 -7 -7 -7 -6 -6 -4 -3 -2 -1 -1 -0 -0 0 -0 2 3 3 3 3 4 5 5 5 5 5 5 6 6 6 6 6 6 6 6 6 6 7 6 6 6 6 6
-7 -7 -8 -10 -10 -10 -9 -9 -9 -8 -7 -6 -5 -4 -3 -3 -3 -2 -1 -0 1 -0 1 1 2 3 3 3 3 4 5 5 4 4 5 5 5 5 6 6 6 6 6 6 6 6 6
-8 -9 -10 -10 -10 -11 -10 -10 -9 -9 -8 -8 -7 -6 -5 -4 -4 -3 -1 -1 -1 -1 -1 -0 1 1 1 1 2 2 3 3 5 4 4 3 4 5 5 6 6 6 6 6 5 5 6
-9 -9 -11 -11 -11 -11 -10 -10 -10 -10 -10 -9 -8 -7 -6 -6 -5 -4 -3 -2 -2 -1 -1 -2 -1 -1 -2 -1 -1 1 2 2 2 2 2 2 2 2 3 5 5 5 6 6 6 5 5
-9 -10 -11 -11 -11 -11 -10 -10 -10 -10 -10 -10 -10 -9 -8 -7 -6 -5 -4 -4 -3 -3 -3 -3 -2 -2 -3 -3 -3 -1 -1 1 0 0 1 -0 2 2 2 4 4 5 5 6 6 6 5
-9 -10 -10 -11 -11 -11 -11 -10 -10 -10 -10 -10 -10 -9 -9 -8 -7 -7 -6 -6 -5 -5 -5 -5 -3 -3 -3 -3 -3 -1 -0 -2 -2 -1 0 0 -0 2 3 3 3 3 4 4 5 5 5
-9 -9 -10 -11 -11 -11 -11 -10 -10 -10 -10 -10 -10 -10 -10 -9 -9 -8 -8 -6 -7 -7 -6 -6 -5 -5 -5 -3 -3 -3 -4 -4 -4 -2 -2 -2 -1 -1 1 3 1 1 3 4 4 4 5
-10 -9 -10 -11 -11 -11 -11 -10 -10 -10 -10 -10 -11 -10 -10 -10 -9 -9 -8 -7 -7 -8 -7 -7 -6 -7 -6 -4 -5 -6 -6 -5 -5 -4 -4 -4 -2 -2 -1 -0 0 0 3 3 3 4 4
-10 -10 -10 -11 -11 -11 -11 -11 -10 -10 -10 -10 -10 -10 -10 -10 -10 -9 -9 -8 -9 -9 -8 -8 -8 -8 -5 -7 -7 -7 -6 -5 -4 -3 -5 -5 -4 -4 -3 -2 -0 2 2 2 4 4 5
-11 -10 -10 -11 -11 -11 -11 -11 -10 -10 -10 -11 -11 -11 -11 -10 -10 -10 -10 -10 -9 -9 -8 -9 -6 -7 -7 -8 -9 -9 -6 -6 -1 -1 -2 -3 -4 -5 -4 -2 -1 0 2 2 3 4 4
-11 -10 -10 -11 -12 -11 -11 -11 -11 -11 -11 -11 -11 -11 -11 -11 -10 -10 -10 -9 -9 -10 -8 -7 -8 -7 -8 -8 -9 -9 -8 -6 -6 -4 -2 -3 -3 -5 -4 -3 -1 1 2 3 2 3 6
-12 -11 -11 -12 -12 -12 -11 -11 -11 -11 -11 -11 -11 -11 -11 -11 -10 -10 -10 -9 -9 -10 -9 -9 -10 -8 -8 -8 -9 -8 -8 -7 -7 -6 -5 -5 -5 -5 -5 -4 -3 -1 2 2 1 4 4
-13 -13 -13 -13 -12 -12 -12 -11 -11 -11 -11 -11 -11 -11 -12 -11 -11 -11 -10 -10 -10 -10 -10 -9 -10 -10 -10 -9 -9 -8 -8 -6 -6 -5 -4 -5 -4 -4 -4 -4 -3 -1 -1 -1 1 2 4
-13 -13 -13 -13 -12 -12 -12 -11 -11 -11 -12 -12 -12 -11 -12 -12 -11 -11 -10 -10 -9 -9 -11 -11 -10 -10 -10 -9 -8 -8 -7 -6 -6 -6 -5 -5 -5 -3 -3 -2 -1 -0 1 2 2 3 4
Height
3155 3158 3161 3163 3165 3167 3168 3171 3172 3174 3176 3178 3179 3180 3182 3184 3185 3185 3186 3185 3184 3185 3186 3186 3187 3187 3188 3189 3189 3189 3189 3190 3189 3190 3190 3190 3190 3190 3190 3190 3190 3189 3190 3189 3189 3189 3188
3148 3152 3154 3157 3160 3162 3164 3165 3168 3169 3171 3173 3174 3176 3178 3180 3181 3182 3183 3182 3182 3183 3184 3184 3184 3185 3186 3187 3186 3185 3186 3186 3186 3186 3186 3187 3187 3188 3188 3188 3188 3188 3188 3187 3186 3186 3186
3143 3145 3147 3150 3154 3157 3159 3161 3163 3164 3167 3168 3170 3171 3174 3176 3177 3179 3179 3179 3179 3180 3181 3182 3182 3182 3182 3183 3182 3182 3183 3183 3183 3184 3184 3184 3184 3185 3185 3185 3184 3184 3185 3184 3184 3183 3183
3137 3139 3142 3144 3147 3150 3153 3155 3157 3160 3163 3164 3165 3167 3170 3171 3173 3174 3174 3175 3175 3176 3177 3177 3178 3178 3179 3178 3178 3178 3179 3180 3179 3180 3180 3180 3180 3181 3182 3182 3181 3181 3181 3180 3180 3180 3180
3131 3133 3134 3136 3140 3142 3145 3148 3151 3154 3157 3159 3161 3162 3165 3167 3169 3170 3171 3171 3172 3173 3172 3173 3173 3174 3174 3174 3174 3174 3175 3175 3176 3176 3176 3177 3177 3177 3179 3178 3178 3178 3178 3177 3177 3176 3177
3123 3125 3127 3130 3132 3134 3138 3141 3143 3146 3149 3152 3154 3157 3160 3162 3164 3165 3166 3167 3168 3169 3170 3170 3170 3172 3171 3170 3170 3170 3170 3171 3171 3172 3173 3174 3173 3173 3174 3176 3175 3174 3175 3175 3175 3174 3173
3117 3119 3121 3122 3124 3127 3129 3133 3136 3139 3141 3144 3147 3151 3154 3157 3158 3160 3163 3164 3166 3166 3165 3166 3167 3167 3167 3167 3167 3168 3167 3168 3168 3169 3170 3170 3170 3170 3173 3172 3172 3171 3171 3170 3172 3171 3168
3107 3111 3113 3116 3118 3120 3123 3125 3128 3132 3135 3138 3140 3144 3148 3151 3154 3155 3156 3158 3159 3160 3159 3162 3162 3162 3161 3161 3164 3164 3164 3164 3164 3165 3165 3167 3166 3168 3168 3169 3168 3168 3167 3167 3167 3166 3164
3098 3102 3105 3108 3111 3112 3114 3117 3120 3124 3127 3130 3133 3138 3141 3145 3148 3151 3152 3153 3154 3154 3154 3156 3157 3156 3157 3158 3157 3159 3160 3159 3160 3161 3162 3163 3165 3165 3166 3166 3165 3164 3164 3164 3164 3162 3159
3090 3092 3096 3100 3104 3106 3107 3110 3113 3116 3119 3122 3126 3130 3135 3139 3144 3145 3148 3149 3150 3152 3150 3149 3149 3148 3151 3151 3153 3153 3154 3156 3156 3158 3159 3159 3160 3161 3161 3161 3163 3161 3162 3161 3159 3158 3156
3083 3084 3087 3089 3093 3097 3101 3103 3105 3108 3112 3116 3120 3123 3128 3133 3136 3141 3143 3144 3147 3151 3150 3146 3144 3145 3147 3151 3151 3152 3153 3154 3155 3156 3158 3159 3157 3157 3157 3158 3159 3159 3158 3157 3155 3153 3151
3077 3077 3078 3081 3084 3086 3091 3095 3098 3100 3104 3108 3112 3116 3121 3127 3130 3135 3137 3140 3145 3150 3143 3139 3140 3142 3145 3147 3148 3150 3151 3153 3153 3152 3152 3154 3154 3155 3154 3154 3155 3155 3155 3154 3150 3150 3143
3070 3070 3071 3073 3075 3078 3081 3086 3091 3093 3096 3099 3104 3108 3113 3119 3124 3128 3132 3136 3143 3138 3134 3135 3136 3139 3142 3145 3146 3146 3147 3150 3151 3150 3150 3150 3150 3150 3149 3149 3150 3151 3153 3152 3146 3144 3137
3062 3063 3064 3065 3066 3069 3073 3077 3081 3086 3089 3092 3096 3100 3105 3111 3116 3121 3126 3132 3130 3120 3126 3130 3133 3136 3138 3140 3142 3143 3142 3143 3146 3147 3146 3146 3145 3147 3148 3147 3148 3148 3150 3151 3144 3138 3135
3055 3056 3057 3058 3060 3061 3064 3068 3072 3076 3080 3085 3089 3093 3097 3103 3109 3114 3119 3120 3113 3115 3120 3124 3128 3131 3133 3135 3138 3139 3139 3139 3141 3143 3147 3144 3141 3143 3145 3145 3146 3145 3145 3146 3142 3139 3134
3048 3049 3050 3051 3053 3055 3057 3060 3064 3069 3073 3077 3082 3086 3091 3093 3100 3107 3111 3107 3109 3109 3112 3114 3120 3125 3125 3129 3133 3132 3134 3134 3137 3140 3142 3140 3137 3138 3140 3141 3142 3141 3141 3141 3141 3136 3126
3042 3042 3043 3045 3048 3050 3052 3055 3057 3062 3067 3070 3074 3079 3085 3088 3093 3098 3095 3098 3101 3102 3107 3112 3114 3117 3118 3122 3124 3126 3125 3130 3132 3134 3136 3137 3136 3130 3132 3132 3134 3136 3133 3135 3135 3133 3127
3034 3037 3037 3039 3042 3046 3048 3051 3053 3057 3061 3063 3068 3073 3077 3082 3088 3086 3086 3090 3093 3096 3100 3104 3106 3110 3112 3115 3117 3118 3117 3123 3125 3127 3129 3134 3131 3124 3124 3125 3126 3128 3127 3130 3128 3123 3119
3027 3028 3032 3034 3036 3040 3044 3047 3049 3052 3055 3058 3062 3066 3070 3074 3076 3078 3080 3084 3086 3089 3094 3097 3101 3103 3106 3109 3111 3108 3109 3113 3119 3122 3125 3128 3126 3121 3112 3115 3114 3115 3117 3119 3120 3119 3110
3019 3020 3024 3026 3030 3034 3038 3042 3045 3048 3052 3055 3058 3060 3064 3065 3069 3072 3076 3078 3082 3084 3087 3091 3092 3097 3099 3100 3102 3097 3101 3103 3108 3111 3115 3119 3117 3116 3108 3103 3112 3112 3113 3115 3116 3111 3103
3010 3013 3015 3019 3023 3027 3032 3036 3040 3044 3047 3051 3051 3053 3057 3057 3060 3065 3070 3070 3074 3078 3080 3084 3084 3088 3092 3092 3092 3090 3095 3093 3095 3099 3104 3110 3104 3102 3098 3096 3100 3102 3102 3102 3101 3095 3100
3001 3003 3006 3011 3016 3019 3024 3029 3033 3038 3042 3044 3044 3048 3052 3054 3056 3060 3062 3062 3066 3072 3075 3078 3080 3083 3085 3084 3085 3084 3082 3084 3082 3086 3091 3097 3089 3092 3087 3086 3088 3092 3084 3082 3082 3083 3086
2991 2993 2996 3002 3007 3012 3017 3022 3027 3032 3033 3034 3037 3043 3047 3049 3051 3054 3054 3056 3060 3065 3068 3070 3074 3074 3074 3077 3076 3074 3073 3072 3070 3070 3077 3084 3084 3083 3078 3077 3083 3075 3062 3067 3070 3072 3074
2981 2984 2987 2992 2998 3003 3009 3014 3019 3024 3025 3030 3033 3039 3042 3042 3044 3047 3049 3054 3056 3058 3059 3062 3064 3065 3068 3068 3065 3063 3061 3059 3058 3055 3064 3060 3072 3077 3069 3072 3066 3048 3060 3060 3057 3057 3057
2970 2973 2977 2982 2988 2995 3001 3006 3012 3016 3018 3023 3029 3033 3035 3035 3038 3041 3044 3046 3050 3051 3051 3052 3054 3058 3060 3059 3057 3052 3049 3045 3040 3041 3045 3050 3058 3062 3066 3055 3047 3046 3040 3045 3050 3043 3044
2959 2962 2966 2972 2980 2987 2993 2999 3004 3009 3013 3017 3022 3027 3030 3031 3029 3035 3038 3042 3040 3042 3044 3044 3046 3050 3051 3050 3052 3047 3044 3042 3036 3031 3035 3039 3040 3048 3047 3042 3024 3027 3034 3039 3044 3022 3033
2948 2950 2956 2964 2972 2979 2986 2992 2997 3002 3007 3009 3014 3020 3023 3022 3023 3028 3029 3034 3037 3036 3034 3037 3039 3043 3044 3040 3040 3040 3035 3036 3031 3027 3020 3035 3033 3032 3029 3027 3007 3017 3024 3028 3029 3003 3024
2941 2944 2950 2958 2966 2973 2979 2985 2990 2995 3000 3002 3008 3013 3016 3015 3015 3019 3023 3026 3026 3028 3030 3033 3035 3033 3034 3035 3033 3028 3023 3021 3018 3011 3007 3016 3022 3011 3011 3009 2994 3001 3014 3014 3002 3015 3017
2936 2940 2947 2954 2960 2966 2971 2977 2983 2989 2994 2996 3001 3007 3010 3010 3007 3010 3014 3014 3018 3022 3022 3022 3021 3023 3027 3025 3023 3019 3015 3009 3006 2998 3000 2996 2998 2996 2996 2979 2984 2991 2989 2992 2996 2998 3002
Wind_Speed
32 33 31 28 28 26 24 26 24 24 22 21 20 19 18 18 16 15 15 15 16 15 14 13 12 11 11 11 11 12 10 10 11 11 9 8 8 7 7 8 8 9 7 8 11 11 9
33 34 33 33 32 30 28 27 26 27 27 25 23 22 21 20 19 17 17 17 18 17 15 15 14 13 13 13 14 14 12 13 15 14 12 11 10 10 10 10 10 11 12 12 12 11 11
36 35 34 34 34 35 33 32 31 29 29 28 28 25 24 23 22 20 19 19 20 19 18 18 17 17 15 15 16 17 14 13 15 15 16 16 14 13 13 12 12 10 12 15 14 12 9
37 37 37 37 37 34 35 34 34 34 34 32 31 27 27 25 23 22 21 21 22 22 22 21 21 20 19 19 17 17 16 15 16 17 17 17 17 17 15 14 16 14 14 12 8 6 8
39 38 38 38 39 38 36 35 35 35 35 35 35 32 29 27 24 23 24 24 24 25 25 23 21 21 20 18 19 19 17 15 14 16 17 18 19 19 18 17 16 12 11 12 9 9 6
38 39 39 39 39 39 39 38 37 36 35 34 34 32 32 29 26 25 27 26 26 25 24 21 20 17 14 13 13 14 15 15 12 13 14 15 17 19 20 16 12 9 9 10 11 10 8
36 38 39 40 40 39 39 39 39 38 36 35 35 33 31 30 27 27 27 25 26 24 22 19 17 19 16 15 14 11 14 16 15 14 14 16 18 20 15 13 13 15 17 18 17 19 19
34 35 37 39 41 41 40 39 39 39 38 38 36 34 31 29 27 25 24 24 24 23 22 16 16 18 17 18 16 14 16 18 18 17 15 16 18 16 15 17 20 20 20 21 20 18 20
35 34 34 36 39 40 40 39 39 39 38 38 37 35 32 29 27 24 24 22 21 22 24 22 18 19 20 21 18 17 17 17 18 18 18 19 17 11 12 15 17 18 20 21 22 23 25
35 36 35 33 35 39 41 40 39 39 39 38 38 36 34 30 27 24 22 20 20 20 21 21 16 14 11 9 9 11 7 9 15 17 19 17 17 15 17 21 19 25 22 24 24 22 16
35 36 36 35 34 35 37 40 40 39 38 38 37 36 34 30 29 25 21 20 19 13 5 8 9 8 8 7 4 4 5 5 6 10 15 12 16 18 19 14 11 17 22 24 25 23 23
34 36 36 36 35 34 34 36 39 40 39 38 36 36 34 31 29 26 22 20 16 7 10 8 10 9 9 7 6 6 7 10 11 13 15 16 20 21 21 23 24 22 25 25 29 26 17
35 36 36 36 35 35 33 34 35 38 39 38 36 35 34 31 27 25 22 20 11 11 14 10 17 19 15 12 15 16 18 17 13 12 14 17 18 18 14 18 23 24 24 9 4 2 6
35 35 35 35 35 34 33 32 33 35 37 38 36 34 33 30 28 24 23 24 17 28 31 20 10 14 14 12 11 13 19 19 15 12 16 12 11 11 10 9 6 8 11 8 6 5 8
33 34 33 33 33 33 30 30 30 31 33 35 36 34 31 30 26 24 28 30 31 34 24 28 23 22 22 17 15 14 17 23 23 22 16 11 9 8 10 15 9 6 9 12 21 25 17
35 32 31 29 29 28 26 25 24 24 27 28 30 31 27 28 24 25 33 40 34 27 25 23 26 20 27 30 26 23 23 15 10 8 13 17 22 12 9 15 15 20 16 6 7 5 10
33 31 27 25 23 21 20 20 20 19 21 23 25 26 27 26 22 29 39 39 39 24 21 18 23 23 26 19 20 23 27 18 9 12 13 23 24 30 23 18 20 22 22 19 19 16 7
29 31 27 25 23 22 21 21 19 19 20 23 22 23 23 24 29 35 42 39 38 24 28 27 30 24 24 21 22 21 26 19 10 5 11 12 17 24 29 29 29 27 30 26 21 11 23
30 30 29 27 24 22 22 23 22 20 18 18 18 18 18 25 34 37 41 43 42 40 34 28 31 27 27 33 25 32 40 38 37 34 24 19 17 20 26 26 24 30 29 29 32 30 37
32 30 31 29 27 25 23 25 25 23 20 20 19 16 22 28 33 33 37 40 41 42 42 39 38 35 34 31 30 32 29 33 20 18 19 15 29 33 37 33 24 23 27 31 29 31 35
32 34 31 32 29 27 26 26 27 26 22 22 25 23 21 21 33 31 32 32 37 41 36 31 37 36 32 37 38 42 41 44 41 38 35 31 37 38 45 49 48 46 45 43 40 48 40
30 31 35 36 32 28 28 28 29 28 26 29 30 28 25 26 24 20 22 33 37 31 29 27 30 28 23 30 31 35 36 34 38 35 27 21 36 34 50 54 48 43 55 60 56 53 48
31 31 36 39 37 32 30 30 30 30 31 33 33 30 27 25 27 28 33 34 30 25 27 28 25 26 31 29 29 33 34 38 43 46 41 35 35 34 40 44 36 36 58 54 52 46 44
31 31 34 38 38 34 30 31 31 32 34 33 32 30 29 29 29 31 30 29 29 28 32 30 30 29 30 27 30 35 40 44 47 52 46 49 44 41 38 33 23 51 42 39 31 31 37
33 32 36 39 39 37 34 33 33 32 33 34 32 31 31 33 32 31 30 29 31 29 32 31 30 27 24 27 30 27 30 39 53 55 55 55 46 41 34 40 39 35 47 41 34 47 47
32 31 36 41 40 38 35 34 34 33 34 35 33 31 32 34 37 29 32 31 32 30 34 33 30 26 24 23 20 21 15 21 16 21 21 16 25 45 43 31 30 56 53 56 45 56 54
27 30 36 40 39 37 34 33 32 33 33 35 34 32 32 37 38 34 33 33 30 30 33 31 29 28 25 29 28 28 37 32 29 29 40 29 31 41 51 48 56 56 26 15 26 53 23
22 27 34 35 35 32 31 31 31 32 32 34 32 30 32 36 38 36 33 35 31 32 32 29 25 30 26 27 27 31 31 38 39 52 54 47 33 44 45 47 44 57 52 60 56 38 28
24 28 30 31 30 31 30 31 30 31 31 33 33 31 32 36 42 39 36 36 33 33 38 39 41 38 24 20 19 17 22 23 36 42 40 47 55 53 47 51 52 44 53 62 65 70 68
Wind_Direction
246 248 247 249 252 252 252 257 257 259 262 262 266 266 266 266 264 266 269 268 266 262 261 261 262 258 262 259 258 264 269 270 269 275 282 277 277 280 274 266 273 285 283 290 301 302 297
250 249 246 247 250 253 256 257 257 258 262 265 265 267 267 266 264 264 261 262 266 267 271 273 270 267 265 264 262 264 264 270 274 279 283 286 289 286 282 276 276 275 283 288 300 301 295
250 252 252 250 247 248 250 254 256 260 260 261 265 269 269 268 266 264 263 265 271 272 271 272 273 273 273 271 266 264 264 264 273 280 284 287 289 287 287 288 279 274 276 283 292 286 270
251 250 250 251 252 249 247 248 252 253 256 260 264 265 266 267 267 266 269 275 282 286 285 283 281 278 275 267 266 267 265 257 261 269 274 279 282 284 284 284 282 286 286 290 296 252 257
254 252 251 252 252 253 252 250 250 250 253 256 257 261 263 262 265 265 267 275 280 283 287 283 287 283 284 266 258 262 261 259 258 263 271 276 281 282 282 281 286 288 278 284 285 283 252
260 257 255 252 252 253 253 252 252 251 252 254 257 256 257 261 263 265 269 275 279 278 281 279 282 284 266 268 258 256 253 260 262 263 270 278 280 281 285 290 285 283 282 272 274 284 268
259 259 257 256 256 253 253 253 253 253 253 254 256 254 255 258 264 265 267 275 281 280 276 277 276 275 273 270 256 254 265 264 264 263 269 279 280 282 291 280 280 282 279 279 277 286 290
260 259 260 258 256 256 254 252 252 251 252 252 252 255 255 256 258 264 270 273 278 282 278 271 272 283 284 277 273 277 272 270 270 272 271 279 286 293 277 276 282 282 280 279 287 293 290
264 262 258 259 261 259 258 257 254 253 251 252 251 251 251 253 256 259 262 266 277 289 296 284 282 278 274 275 278 269 265 275 274 270 270 273 283 276 279 277 285 286 283 293 295 299 289
268 266 263 259 256 257 258 258 256 255 254 251 250 251 250 249 250 251 255 264 275 294 306 293 280 268 266 269 246 251 272 280 267 273 275 279 289 290 287 281 277 280 291 296 297 297 291
272 270 268 265 263 258 256 256 257 256 254 253 252 251 248 245 244 243 246 254 268 296 317 279 248 241 228 221 214 217 301 324 326 297 281 283 281 293 294 296 274 282 290 292 291 286 290
273 271 269 267 266 263 261 257 256 257 255 254 252 250 248 244 242 238 237 242 248 247 250 232 225 214 212 205 221 260 292 301 305 300 294 296 286 285 294 284 279 279 295 288 284 281 265
271 270 269 267 264 264 262 260 257 256 256 255 253 251 249 246 244 238 229 225 217 210 240 239 234 239 235 240 260 273 284 286 288 301 300 304 297 301 299 285 281 279 279 301 289 236 274
270 269 266 265 264 262 260 260 259 256 255 254 255 252 249 244 239 230 216 205 219 241 234 244 225 241 239 243 237 258 277 275 281 284 293 292 295 312 305 317 283 288 274 220 271 269 286
266 265 263 262 260 260 260 256 255 256 255 253 252 252 250 244 234 219 206 202 230 241 246 235 232 239 239 229 237 246 254 264 273 282 274 286 273 304 296 292 285 287 264 299 262 270 281
266 260 259 254 253 253 253 253 246 240 245 248 248 249 246 244 229 208 199 219 230 243 235 236 232 240 242 239 241 248 256 262 254 272 285 275 286 293 290 278 255 267 277 265 252 291 285
265 259 251 246 243 243 243 245 246 233 228 232 236 235 234 233 222 201 208 218 223 223 224 220 229 229 236 236 235 244 254 251 246 271 269 274 271 279 278 261 269 268 256 253 256 246 270
258 253 245 241 240 239 237 236 240 240 236 232 228 229 225 216 211 215 221 222 231 227 215 222 227 219 227 226 236 237 246 242 225 256 283 319 279 277 278 279 278 271 262 262 245 248 254
254 249 243 237 236 235 235 233 232 237 235 238 233 229 219 206 210 215 223 227 231 236 228 230 235 241 247 250 256 253 257 261 257 263 267 276 268 303 292 280 266 256 258 256 259 267 265
253 248 239 237 232 229 232 231 230 231 232 233 232 228 211 209 220 221 225 231 233 241 246 244 251 248 255 256 252 261 260 266 258 242 232 268 259 254 256 259 278 273 272 273 270 269 270
259 246 239 234 230 227 228 226 229 228 227 231 234 229 229 224 225 224 225 233 236 241 246 246 250 253 256 257 258 258 266 267 269 266 259 263 270 254 256 261 271 268 270 268 266 265 257
257 251 238 229 231 227 225 224 226 227 225 231 240 237 231 235 241 231 230 234 239 238 248 246 255 262 264 259 266 271 268 266 273 269 250 239 257 267 261 259 266 280 266 267 263 258 260
264 249 237 229 225 224 223 224 225 224 222 228 233 242 246 244 247 244 241 248 253 256 259 261 264 264 262 264 271 272 273 272 270 269 266 254 254 261 272 267 274 267 257 258 263 257 255
265 253 237 226 222 224 226 226 223 223 227 231 236 238 244 248 247 248 256 261 262 261 262 264 263 264 273 287 282 278 274 269 265 263 258 263 253 257 267 280 252 254 264 258 257 260 256
265 252 234 223 219 223 224 225 224 224 228 230 233 236 242 252 255 254 256 259 268 262 262 263 261 270 278 282 294 295 287 283 271 270 265 259 259 246 253 254 263 263 252 255 258 266 266
262 248 233 219 218 221 222 222 222 222 227 231 234 235 240 248 252 249 256 259 261 268 274 269 276 275 277 274 273 261 261 274 279 283 279 277 266 233 239 244 250 254 266 265 257 264 261
256 244 222 213 216 219 219 218 219 220 225 232 234 233 236 246 251 253 256 261 264 267 273 277 284 286 276 268 261 258 259 262 261 271 272 265 250 230 240 243 252 244 244 236 214 251 253
249 221 210 211 214 217 219 216 217 219 225 231 235 231 235 244 253 255 256 258 261 260 265 275 277 273 279 265 263 269 264 270 264 272 274 258 249 240 240 241 249 250 248 244 244 252 261
222 209 209 210 212 216 215 215 219 218 221 230 235 235 237 245 253 256 255 257 263 269 271 273 272 271 260 260 253 271 260 262 275 281 270 263 248 249 244 245 251 254 257 256 255 253 263